Location: Unspecified
(0.0000°N, 0.0000°E)
Time: 19:10:27
(UTC+00:00)

Hubble Space Telescope - Pass Details

Date: 21 October 2021
Orbit: 535 x 539 km, 28.5° (Epoch: 24 October)

Event Time Altitude Azimuth Distance (km) Brightness Sun altitude
Rises 18:11:43 0° 235° (SW) 2,666 5.7 -6.7°
Reaches altitude 10° 18:13:59 10° 232° (SW) 1,775 4.6 -7.2°
Maximum altitude 18:18:04 65° 150° (SSE) 584 0.9 -8.2°
Enters shadow 18:21:53 12° 68° (ENE) 1,675 2.6 -9.2°
